Weather in Borovoj

Russia / Komi Republic     63°13′46″N   52°53′28″E
temp.,
°C
wind,
m/s
gust,
m/s
humid.,
%
clouds,
%
prec.,
mm/h
press.,
hPa
HPBL,
m
14 april, wed
wed1400:00+7wsw41197100 0.7 1021615
03:00+7sw41098100 0.8 1021364
06:00+7ssw31098100 0.0 1020381
09:00+7ssw51497100 0.1 1018576
12:00+10sw5128593 0.0 1017785
15:00+13sw5127125 0.1 1015991
18:00+13sw7156798 0.0 10121024
21:00+12sw8186799 0.0 10101145
15 april, thu
thu1500:00+8nw5990100 2.3 1012663
03:00+2wnw3996100 6.7 1015531
06:00+3wnw587599 0.6 10161039
09:00+3wnw5858100 0.6 10181123
12:00+5wnw5845100 0.0 10191632
15:00+6nw5103991 0.0 10212572
18:00+3nw51053100 0.1 10231677
21:00+1nnw38655 0.2 1025638
16 april, fri
fri1600:00−1nnw257843 0.0 1027318
03:00−1nw148211 0.0 1029361
06:000wsw247535 0.0 1028508
09:00+2wsw465281 0.0 10271129
12:00+4wsw61253100 0.0 10251462
15:00+4w61461100 0.1 10231554
18:00+4wnw5107398 0.1 10221222
21:00+2nw51075100 0.3 1024987
17 april, sat
sat1700:00−1nnw496996 0.0 1025964
03:00−3nnw387585 0.0 1027759
06:00−2nw356499 0.0 1027792
09:000wnw3548100 0.0 10261060
12:00−1w51078100 0.1 1025972
15:00+2nw81351100 1.0 10231908
18:00−1nw6125243 0.0 10251873
21:00−2nnw511565 0.0 10271455
18 april, sun
sun1800:00−3nnw496055 0.0 10271230
03:00−3nnw4864100 0.0 10281008
06:00−3nnw476030 0.0 1029868
09:00−1nnw4651100 0.0 10301563
12:00+1n3540100 0.1 10312060
15:00+2nne353598 0.1 10321954
18:000nne22475 0.0 103431
21:00−2n11545 0.0 103510